[[{"header":{"parameterUnit":"m.s-1","parameterCategory":1,"la1":30.2991,"la2":30.254,"lo1":-89.0895,"lo2":-89.0444,"dy":0.0017,"dx":0.0017,"nx":28,"ny":28,"refTime":"2024-05-02T09:00:00:Z","depth":0,"parameterNumber":2,"parameterNumberName":"U-component_of_WINDS"},"data":[0,0,0,0,0,0,0,0,0,0,0,0,0,0,0,0,0,0,0,0,0,0,0,0,0,0,0,0,0,0,0,0,0,0,0,0,0,0,0,0,0,0,0,0,0,0,0,0,0,0,0,0,0,0,0,0,0,0,-2.2945,-2.2945,0,-2.2948,-2.2948,-2.2948,-2.2916,-2.2915,-2.2914,-2.2913,-2.2917,-2.2918,-2.2919,0,0,0,0,0,0,0,0,0,0,0,0,0,-2.2912,-2.2912,-2.2945,-2.2945,-2.2945,-2.2948,-2.2948,-2.2948,-2.2916,-2.2915,-2.2914,-2.2913,-2.2917,-2.2918,-2.2919,0,0,0,0,0,0,0,0,0,0,0,0,0,-2.2922,-2.2913,-2.2945,-2.293,-2.2928,-2.2948,-2.2948,-2.2948,-2.2916,-2.2915,-2.2914,-2.2912,-2.2917,-2.2918,-2.2919,-2.2955,0,0,-2.2924,-2.2924,0,0,0,0,0,0,0,0,-2.2921,-2.2923,-2.2932,-2.2931,-2.2929,-2.293,-2.2938,-2.2951,-2.2917,-2.2921,-2.2913,-2.2912,-2.2923,-2.2924,-2.2927,-2.2955,-2.2955,-2.2924,-2.2925,-2.2925,-2.2926,0,0,0,0,0,0,0,-2.2921,-2.2923,-2.2946,-2.2932,-2.293,-2.2923,-2.2922,-2.294,-2.2929,-2.292,-2.2918,-2.2919,-2.2922,-2.2926,-2.2927,-2.2955,-2.2924,-2.2925,-2.2926,-2.2926,-2.3012,-2.3014,0,0,0,0,0,0,-2.2922,-2.2922,-2.2946,-2.2947,-2.2922,-2.2924,-2.2924,-2.2931,-2.2929,-2.2927,-2.292,-2.2917,-2.2924,-2.2925,-2.2927,-2.2968,-2.2925,-2.2927,-2.2927,-2.3011,-2.3013,-2.3014,0,0,0,0,0,0,-2.2921,-2.2924,-2.2946,-2.2934,-2.2936,-2.2926,-2.2935,-2.2932,-2.2936,-2.2929,-2.2927,-2.2926,-2.2923,-2.2925,-2.2948,-2.2968,-2.2927,-2.2928,-2.3009,-2.3011,-2.3013,-2.3051,0,0,0,0,0,0,-2.292,-2.2924,-2.2938,-2.2934,-2.2937,-2.2967,-2.2936,-2.2933,-2.2939,-2.2935,-2.2934,-2.2932,-2.2922,-2.2946,-2.295,-2.2969,-2.293,-2.3007,-2.301,-2.3013,-2.3048,-2.3054,-2.3059,0,0,0,0,0,-2.2919,-2.2948,-2.2938,-2.2941,-2.2953,-2.2968,-2.297,-2.2957,-2.294,-2.2954,-2.2949,-2.2932,-2.2965,-2.2949,-2.2952,-2.2972,-2.3006,-2.3009,-2.3012,-2.3045,-2.3053,-2.3059,0,0,0,0,0,0,-2.2954,-2.2947,-2.2937,-2.2965,-2.2968,-2.2963,-2.2979,-2.2966,-2.2973,-2.297,-2.2954,-2.2954,-2.298,-2.2978,-2.296,-2.3007,-2.2983,-2.2987,-2.3006,-2.3013,-2.3019,-2.3018,-2.2931,0,0,0,0,0,-2.2965,-2.2978,-2.2971,-2.2997,-2.2999,-2.2989,-2.2995,-2.2985,-2.2987,-2.2988,-2.2985,-2.2988,-2.2999,-2.3006,-2.3016,-2.3048,-2.3047,-2.3063,-2.3069,-2.3074,-2.3077,-2.3094,-2.3101,-2.3025,-2.3025,-2.3025,0,0,-2.2988,-2.2986,-2.2995,-2.3004,-2.3005,-2.3019,-2.299,-2.3006,-2.3016,-2.2991,-2.3012,-2.301,-2.3012,-2.304,-2.3052,-2.3039,-2.3098,-2.3078,-2.3082,-2.3083,-2.3098,-2.3105,-2.3111,-2.3027,-2.3027,-2.3026,0,0,-2.3036,-2.3036,-2.3058,-2.3059,-2.306,-2.3053,-2.3059,-2.3056,-2.3054,-2.3075,-2.3056,-2.3068,-2.3087,-2.3089,-2.3093,-2.3142,-2.3127,-2.3146,-2.3175,-2.3192,-2.3198,-2.3203,-2.322,-2.3226,-2.3149,-2.3149,-2.315,0,-2.3065,-2.3084,-2.307,-2.3087,-2.3092,-2.307,-2.3091,-2.3093,-2.3098,-2.3101,-2.3088,-2.3111,-2.3111,-2.3138,-2.315,-2.3154,-2.3159,-2.3145,-2.3198,-2.3203,-2.3208,-2.3224,-2.323,-2.3152,-2.3151,-2.3151,-2.3151,0,-2.3119,-2.3133,-2.315,-2.3154,-2.3161,-2.318,-2.3169,-2.3177,-2.3167,-2.3162,-2.3184,-2.3183,-2.3192,-2.3198,-2.3188,-2.3224,-2.3216,-2.3201,-2.3176,-2.3217,-2.3232,-2.3238,-2.3155,-2.3154,-2.3153,-2.3153,0,0,-2.3189,-2.3185,-2.3192,-2.3193,-2.3193,-2.3204,-2.3222,-2.323,-2.3238,-2.3242,-2.3257,-2.3273,-2.3259,-2.3263,-2.3253,-2.3268,-2.3306,-2.325,-2.325,-2.326,-2.3345,-2.3356,-2.3364,-2.3297,-2.3298,-2.3299,-2.3345,0,-2.3235,-2.3266,-2.3254,-2.3285,-2.3298,-2.3277,-2.3293,-2.3295,-2.329,-2.33,-2.3296,-2.3307,-2.3288,-2.329,-2.3303,-2.3299,-2.3323,-2.3295,-2.331,-2.3311,-2.3309,-2.3372,-2.3384,-2.3427,-2.3351,-2.3352,-2.3352,0,-2.3294,-2.33,-2.3332,-2.333,-2.3335,-2.3349,-2.3356,-2.3366,-2.3367,-2.3363,-2.3368,-2.3355,-2.3373,-2.3349,-2.3373,-2.3354,-2.336,-2.3358,-2.336,-2.336,-2.3333,-2.3373,-2.3441,-2.3447,-2.3361,-2.3361,-2.336,0,-2.3341,-2.3357,-2.3379,-2.3381,-2.3379,-2.3389,-2.3389,-2.3389,-2.3395,-2.3401,-2.3404,-2.3412,-2.3417,-2.3423,-2.3413,-2.3397,-2.3439,-2.3414,-2.3435,-2.3436,-2.3445,-2.3444,-2.3514,-2.3449,-2.3449,-2.3449,-2.3449,0,-2.3394,-2.3415,-2.34,-2.3413,-2.3435,-2.3422,-2.3444,-2.3442,-2.3442,-2.3455,-2.3437,-2.3449,-2.3435,-2.3446,-2.3438,-2.3459,-2.3462,-2.3459,-2.3456,-2.346,-2.346,-2.3463,-2.3459,-2.3451,-2.345,-2.345,-2.345,0,-2.345,-2.3441,-2.3463,-2.3459,-2.3459,-2.3475,-2.3472,-2.3484,-2.3478,-2.3494,-2.3497,-2.3489,-2.35,-2.3491,-2.3502,-2.3497,-2.3525,-2.3518,-2.3524,-2.3522,-2.3544,-2.3541,-2.3616,-2.3625,-2.3556,-2.3557,-2.3557,0,-2.3485,-2.35,-2.3497,-2.3504,-2.3505,-2.3516,-2.3522,-2.3509,-2.3516,-2.3518,-2.353,-2.354,-2.3548,-2.3567,-2.3562,-2.3571,-2.3564,-2.359,-2.3565,-2.3568,-2.3564,-2.3563,-2.3564,-2.3595,-2.3596,-2.3596,-2.3597,0,-2.3546,-2.3541,-2.355,-2.3557,-2.3564,-2.3569,-2.3572,-2.3579,-2.3566,-2.3574,-2.3586,-2.3592,-2.3603,-2.3613,-2.362,-2.362,-2.3606,-2.3605,-2.361,-2.3613,-2.3616,-2.3614,-2.3537,-2.3603,-2.3602,-2.3602,-2.3601,-2.3601,-2.3592,-2.3605,-2.3605,-2.3615,-2.3616,-2.362,-2.3631,-2.3626,-2.3636,-2.3644,-2.3636,-2.365,-2.3651,-2.3659,-2.366,-2.3671,-2.366,-2.3668,-2.367,-2.3672,-2.3674,-2.3615,-2.3672,-2.3672,-2.3672,-2.3671,-2.3671,0,-2.3653,-2.3651,-2.3661,-2.3666,-2.3674,-2.366,-2.3664,-2.3671,-2.3684,-2.3686,-2.3693,-2.3706,-2.3716,-2.3712,-2.372,-2.373,-2.3723,-2.3732,-2.3731,-2.3731,-2.3684,-2.3678,-2.3737,-2.3737,-2.3737,-2.3737,-2.3737,-2.3737,-2.3685,-2.3705,-2.37,-2.372,-2.3719,-2.3732,-2.3735,-2.3738,-2.374,-2.3755,-2.3763,-2.376,-2.3759,-2.3768,-2.3776,-2.3774,-2.3778,-2.3789,-2.3785,-2.3741,-2.3735,-2.3728,-2.3723,-2.379,-2.379,-2.3832,-2.3832,-2.3832]},{"header":{"parameterUnit":"m.s-1","parameterCategory":1,"la1":30.2991,"la2":30.254,"lo1":-89.0895,"lo2":-89.0444,"dy":0.0017,"dx":0.0017,"nx":28,"ny":28,"refTime":"2024-05-02T09:00:00:Z","depth":0,"parameterNumber":3,"parameterNumberName":"V-component_of_WINDS"},"data":[0,0,0,0,0,0,0,0,0,0,0,0,0,0,0,0,0,0,0,0,0,0,0,0,0,0,0,0,0,0,0,0,0,0,0,0,0,0,0,0,0,0,0,0,0,0,0,0,0,0,0,0,0,0,0,0,0,0,3.3839,3.3839,0,3.3847,3.3847,3.3847,3.3811,3.3809,3.3808,3.3807,3.3815,3.3816,3.3817,0,0,0,0,0,0,0,0,0,0,0,0,0,3.379,3.3791,3.3839,3.3839,3.3839,3.3847,3.3847,3.3847,3.3811,3.3809,3.3808,3.3807,3.3814,3.3816,3.3817,0,0,0,0,0,0,0,0,0,0,0,0,0,3.3806,3.3791,3.3839,3.3822,3.382,3.3847,3.3847,3.3847,3.3811,3.3809,3.3808,3.3806,3.3814,3.3816,3.3817,3.3861,0,0,3.3823,3.3824,0,0,0,0,0,0,0,0,3.3805,3.3808,3.3824,3.3823,3.3821,3.3826,3.3833,3.3852,3.3811,3.3815,3.3807,3.3806,3.382,3.3821,3.3826,3.3861,3.3861,3.3823,3.3824,3.3825,3.3825,0,0,0,0,0,0,0,3.3804,3.3807,3.3842,3.3824,3.3823,3.3813,3.3814,3.3836,3.3826,3.3814,3.3811,3.3813,3.3819,3.3824,3.3826,3.3861,3.3823,3.3825,3.3826,3.3826,3.3932,3.3933,0,0,0,0,0,0,3.3805,3.3806,3.3842,3.3842,3.3809,3.3815,3.3816,3.3826,3.3826,3.3824,3.3814,3.3811,3.3822,3.3824,3.3826,3.3876,3.3825,3.3826,3.3828,3.393,3.3932,3.3934,0,0,0,0,0,0,3.3804,3.3809,3.3841,3.3824,3.3827,3.3818,3.383,3.3827,3.3833,3.3826,3.3824,3.3822,3.3821,3.3823,3.3852,3.3876,3.3827,3.3829,3.3928,3.3931,3.3933,3.3977,0,0,0,0,0,0,3.3803,3.3809,3.3825,3.3824,3.3828,3.3868,3.3831,3.3829,3.3836,3.3832,3.3833,3.3831,3.382,3.385,3.3854,3.3878,3.383,3.3926,3.3929,3.3932,3.3974,3.3981,3.3987,0,0,0,0,0,3.3802,3.3837,3.3826,3.3831,3.3849,3.3869,3.3872,3.3858,3.3838,3.3855,3.385,3.3831,3.3873,3.3853,3.3857,3.3882,3.3924,3.3928,3.3932,3.3971,3.398,3.3987,0,0,0,0,0,0,3.3841,3.3837,3.3825,3.3861,3.3866,3.3863,3.3883,3.3868,3.3879,3.3874,3.3857,3.3857,3.3889,3.3888,3.3866,3.3924,3.3895,3.39,3.3923,3.3931,3.3938,3.3937,3.3832,0,0,0,0,0,3.3854,3.3871,3.3867,3.3899,3.3902,3.3893,3.3901,3.3891,3.3895,3.3896,3.3894,3.3898,3.3912,3.3922,3.3934,3.3973,3.3973,3.3992,3.3999,3.4005,3.4009,3.403,3.4038,3.3947,3.3947,3.3946,0,0,3.3881,3.3881,3.3893,3.3907,3.391,3.3928,3.3895,3.3915,3.3928,3.3899,3.3926,3.3925,3.3928,3.3963,3.3977,3.3963,3.4035,3.401,3.4015,3.4016,3.4035,3.4043,3.4051,3.3949,3.3949,3.3948,0,0,3.3939,3.3941,3.3968,3.3971,3.3976,3.3969,3.3976,3.3975,3.3973,3.4,3.3979,3.3994,3.4018,3.4022,3.4027,3.4086,3.4069,3.4091,3.4127,3.4147,3.4154,3.416,3.4181,3.4189,3.4095,3.4096,3.4096,0,3.3971,3.3998,3.3984,3.4006,3.4013,3.3988,3.4015,3.4019,3.4027,3.4032,3.4016,3.4046,3.4047,3.4081,3.4096,3.4101,3.4108,3.4091,3.4154,3.4161,3.4166,3.4186,3.4194,3.4098,3.4098,3.4098,3.4097,0,3.4038,3.4057,3.4078,3.4087,3.4097,3.4121,3.411,3.4121,3.411,3.4105,3.4132,3.4133,3.4145,3.4152,3.4141,3.4185,3.4176,3.4157,3.4128,3.4178,3.4196,3.4204,3.4102,3.4101,3.41,3.41,0,0,3.4121,3.4122,3.413,3.4133,3.4136,3.415,3.4174,3.4186,3.4196,3.4202,3.4221,3.4242,3.4225,3.4231,3.422,3.4238,3.4285,3.4217,3.4217,3.4229,3.4333,3.4347,3.4356,3.4274,3.4275,3.4276,3.4332,0,3.4177,3.4218,3.4206,3.4246,3.4263,3.424,3.426,3.4264,3.426,3.4273,3.4268,3.4284,3.426,3.4264,3.428,3.4276,3.4305,3.4271,3.429,3.4291,3.429,3.4365,3.438,3.4433,3.434,3.4341,3.4342,0,3.4249,3.4259,3.4301,3.4301,3.4308,3.4326,3.4336,3.435,3.4353,3.4349,3.4356,3.4341,3.4364,3.4335,3.4365,3.4343,3.435,3.4349,3.435,3.4351,3.4319,3.4368,3.445,3.4458,3.4353,3.4352,3.4351,0,3.4305,3.4328,3.4357,3.4361,3.4361,3.4375,3.4376,3.4378,3.4386,3.4395,3.44,3.4411,3.4417,3.4426,3.4415,3.4395,3.4447,3.4417,3.4443,3.4444,3.4455,3.4454,3.4539,3.446,3.446,3.446,3.446,0,3.4369,3.4396,3.4382,3.4399,3.4428,3.4414,3.4443,3.4441,3.4443,3.4459,3.444,3.4455,3.444,3.4454,3.4445,3.4472,3.4474,3.4471,3.4469,3.4473,3.4473,3.4477,3.4473,3.4462,3.4462,3.4461,3.4461,0,3.4437,3.4428,3.4457,3.4456,3.4456,3.4478,3.4476,3.4492,3.4486,3.4507,3.4511,3.4503,3.4518,3.4508,3.4523,3.4518,3.4552,3.4544,3.4551,3.4549,3.4576,3.4573,3.4665,3.4677,3.4591,3.4592,3.4593,0,3.4478,3.4498,3.4499,3.4509,3.4511,3.4527,3.4535,3.4522,3.4531,3.4537,3.4552,3.4566,3.4576,3.4602,3.4597,3.4609,3.4601,3.4632,3.4602,3.4606,3.4601,3.46,3.4602,3.4638,3.4639,3.464,3.4641,0,3.4553,3.4548,3.456,3.4572,3.4583,3.4591,3.4597,3.4606,3.4593,3.4604,3.462,3.4628,3.4644,3.4658,3.4668,3.4668,3.4652,3.465,3.4657,3.4661,3.4664,3.4663,3.4567,3.4648,3.4647,3.4647,3.4646,3.4646,3.4608,3.4625,3.4628,3.4643,3.4647,3.4653,3.4668,3.4665,3.4678,3.469,3.4681,3.47,3.4703,3.4714,3.4717,3.4731,3.4718,3.4728,3.473,3.4733,3.4737,3.4662,3.4733,3.4732,3.4732,3.4732,3.4732,0,3.4682,3.4683,3.4696,3.4707,3.4718,3.4703,3.4709,3.472,3.4737,3.4741,3.4752,3.477,3.4783,3.4779,3.4791,3.4803,3.4796,3.4807,3.4806,3.4806,3.4747,3.474,3.4813,3.4813,3.4812,3.4812,3.4812,3.4812,3.4721,3.4749,3.4744,3.4773,3.4773,3.4792,3.4797,3.4802,3.4806,3.4827,3.4838,3.4836,3.4837,3.4849,3.486,3.4859,3.4864,3.4877,3.4873,3.4818,3.481,3.4803,3.4796,3.4879,3.4879,3.493,3.4931,3.4931]}]]